Temperature
12 12 12 11 11 11 11 11 10 10 10 10 10 10 10 10 10 10 10 10 10 10 10 9 9 9 10 9 9 9 9 9 9 9 9 9 9 9 8 8 8 8 8
12 12 11 11 11 11 11 10 10 10 10 10 10 10 10 10 10 10 10 10 10 10 10 9 9 9 9 9 9 9 9 9 9 9 9 9 8 8 8 8 8 8 7
12 12 11 11 11 11 10 10 10 10 10 10 10 10 10 10 10 10 10 10 10 10 10 10 9 9 9 9 9 9 9 9 9 9 9 8 8 8 8 8 7 7 7
12 12 11 11 11 10 10 10 10 10 10 10 10 10 10 10 10 10 10 10 10 10 10 10 9 9 9 9 9 9 9 9 9 9 8 8 8 8 7 7 7 7 6
12 12 11 11 11 10 10 10 10 10 10 10 10 10 10 10 10 10 10 9 9 10 10 10 9 9 9 9 9 9 9 9 9 9 8 8 8 7 7 7 7 6 6
12 11 11 11 11 10 10 10 10 10 10 10 10 9 9 9 10 10 10 10 9 9 10 10 10 9 9 9 9 9 9 9 8 8 8 8 7 7 7 6 6 6 5
12 11 11 11 10 10 10 10 10 10 10 9 9 9 9 9 9 9 9 9 9 9 9 9 9 9 9 9 9 9 9 8 8 8 8 7 7 7 6 6 6 5 5
11 11 11 11 10 10 10 10 10 9 9 9 9 9 9 9 9 9 9 9 9 9 9 9 9 9 9 9 9 9 9 8 8 8 8 7 6 6 6 5 5 5 4
11 11 11 11 10 10 10 10 10 9 9 9 9 10 9 9 9 9 9 9 9 9 9 10 9 9 9 9 9 9 9 8 8 8 7 7 6 6 5 5 5 4 4
11 11 11 11 10 10 10 10 10 10 10 9 9 10 10 10 10 9 9 9 9 9 9 9 9 9 9 9 9 9 9 8 8 7 7 6 6 5 5 4 4 4 3
11 11 11 11 10 10 10 10 10 10 10 10 10 10 10 10 10 10 9 9 9 9 9 9 9 9 9 9 9 9 8 8 8 7 7 6 6 5 4 4 4 3 3
11 11 11 11 11 10 10 10 10 10 10 10 10 10 10 10 10 10 10 10 9 9 9 9 9 9 9 9 8 8 8 8 7 7 7 6 6 5 4 4 3 3 3
11 11 11 10 10 11 10 10 10 10 10 10 10 10 10 10 10 10 10 10 9 9 9 9 9 9 9 8 8 8 8 7 7 7 6 6 6 5 4 4 3 3 2
11 11 11 11 10 10 10 10 10 10 10 10 10 10 10 10 10 10 10 10 9 9 9 9 9 9 8 8 8 8 8 7 7 6 6 6 5 5 4 3 3 2 2
11 11 11 11 10 10 10 10 10 10 10 10 10 10 10 10 10 10 10 10 9 9 8 9 8 8 8 8 8 7 7 7 6 6 6 5 5 4 4 3 3 2 2
11 11 11 10 10 10 10 10 10 10 10 10 10 10 10 9 9 10 10 9 9 9 9 8 8 8 8 8 7 7 7 6 6 6 5 5 4 4 3 3 2 1 1
10 10 10 10 10 10 10 10 10 10 10 10 10 10 10 9 9 9 9 9 9 9 8 8 8 8 8 7 7 7 6 6 6 5 5 4 4 3 3 2 1 1 1
10 10 10 10 10 10 10 10 10 10 10 10 10 10 10 9 9 9 9 9 9 9 8 8 8 8 7 7 7 6 6 5 5 5 4 4 3 3 2 1 1 0 0
10 10 10 10 10 10 10 10 10 10 10 10 10 10 10 9 9 9 9 9 9 9 8 8 8 7 7 7 6 6 6 5 5 4 4 3 3 2 2 1 0 0 -0
10 10 10 10 10 10 10 10 10 10 10 10 10 10 10 10 9 9 9 9 9 8 8 8 7 7 7 6 6 5 5 5 5 4 3 3 2 2 1 1 0 -0 -1
10 10 10 10 10 10 10 10 10 10 10 10 10 10 10 9 9 9 9 9 8 8 8 7 7 6 6 6 5 5 5 5 4 4 3 3 2 2 1 1 0 -0 -1
10 10 10 10 10 10 10 10 10 10 10 10 10 10 9 9 9 9 8 8 8 8 8 7 7 6 6 5 5 5 4 4 3 3 3 3 2 1 1 0 -0 -1 -1
9 10 10 10 10 10 10 10 10 10 10 10 10 10 9 9 9 8 8 8 8 7 7 7 7 6 6 5 5 4 4 3 3 2 2 2 2 1 1 0 -1 -1 -2
9 9 9 10 10 10 10 10 10 10 10 10 10 10 9 9 9 8 8 8 7 7 7 6 6 6 5 5 4 4 3 3 2 2 1 1 1 1 0 -0 -1 -1 -2
9 9 9 9 10 10 10 10 10 9 9 9 9 9 9 9 9 8 8 8 7 7 6 6 5 5 5 4 4 3 2 2 2 1 1 -0 -0 -0 0 -0 -1 -2 -2
9 9 9 9 9 10 10 10 9 9 9 9 9 9 9 8 8 8 8 7 7 7 6 6 5 5 4 4 3 3 2 2 1 0 -0 -1 -1 -2 -1 -1 -1 -2 -2
Wind_Speed
11 11 10 11 11 12 11 8 7 7 7 8 7 6 6 7 10 12 12 11 9 9 8 7 6 6 5 5 4 4 5 5 6 6 7 8 9 10 11 12 12 13 14
12 11 10 9 9 12 12 9 7 7 5 5 5 5 6 8 9 12 13 12 10 8 7 6 5 4 4 3 2 3 3 4 4 6 7 8 9 10 11 12 12 13 14
14 12 11 10 9 13 12 9 7 6 5 5 5 5 5 7 8 10 12 12 10 9 7 6 5 4 2 2 1 1 2 3 4 5 6 7 8 10 10 11 13 14 14
17 13 11 10 11 11 8 6 7 5 5 5 4 3 4 5 6 8 10 10 10 9 8 7 5 4 3 2 1 0 1 3 4 5 6 8 8 9 10 11 13 14 15
19 13 11 10 12 9 7 7 6 6 6 5 4 4 3 3 4 5 6 8 9 10 9 8 7 5 4 3 2 2 2 3 4 6 7 8 9 10 11 12 13 14 15
18 15 11 13 12 9 8 8 8 6 6 6 5 4 3 3 3 4 5 6 8 9 9 9 8 7 5 4 4 3 4 4 5 6 7 8 9 10 11 12 13 14 15
18 15 12 13 12 10 10 10 7 8 6 5 5 3 1 2 3 4 4 5 6 8 9 9 9 8 7 6 5 4 5 6 7 7 8 9 10 11 12 13 13 14 15
17 15 15 13 12 10 11 10 9 6 5 6 6 5 2 1 3 4 4 4 5 6 7 8 8 7 7 7 7 6 6 7 8 9 9 10 11 12 12 13 14 15 15
17 15 16 14 13 12 11 11 10 9 8 7 6 5 4 4 3 3 4 4 5 4 5 7 8 8 7 7 7 7 7 8 9 10 10 11 12 12 13 13 14 15 15
17 16 16 15 14 12 12 12 10 8 9 8 6 3 3 4 4 2 3 4 5 5 5 5 6 7 8 7 7 7 7 8 10 11 11 11 12 13 14 14 14 15 16
16 17 16 14 15 12 13 13 11 11 8 8 6 4 3 1 3 3 3 3 3 4 4 5 5 7 8 8 7 7 7 8 9 10 11 12 13 13 14 14 14 15 15
13 16 16 14 13 13 14 13 12 13 10 8 6 5 5 4 4 4 3 4 4 4 4 4 5 6 7 8 7 7 7 8 8 9 10 11 12 13 13 14 14 15 15
11 16 15 15 13 12 13 13 12 13 12 11 8 6 5 5 4 4 4 3 3 2 3 3 4 7 7 7 6 6 7 7 7 9 10 10 11 12 13 14 14 15 16
12 15 15 15 14 13 14 13 12 11 11 11 10 9 6 5 5 4 4 4 3 1 2 4 3 5 7 8 6 6 5 6 7 8 9 10 10 11 12 13 13 14 15
11 15 15 14 14 15 14 15 11 12 12 11 10 9 7 5 5 4 4 5 5 3 3 4 3 4 6 7 6 4 4 7 7 8 9 9 9 10 11 12 12 13 14
12 15 16 16 15 15 15 14 12 12 13 11 9 10 8 6 5 5 4 4 4 4 3 2 2 3 4 4 5 4 5 6 6 7 8 8 9 9 10 11 11 12 13
14 15 16 17 16 16 15 14 14 14 14 12 11 11 10 8 7 6 5 4 4 4 4 2 1 2 2 2 1 2 3 4 5 6 7 8 8 9 10 10 10 11 12
13 14 15 16 16 16 15 16 16 16 16 15 14 12 11 9 9 7 6 6 5 4 4 4 1 1 1 2 1 1 2 3 4 6 7 8 9 10 10 10 10 10 11
12 13 15 16 16 16 15 15 15 15 15 15 15 14 13 12 10 7 7 6 5 4 3 3 2 1 1 1 0 1 1 2 4 5 6 7 9 9 9 10 10 10 11
12 13 14 15 15 15 15 15 14 14 13 13 13 13 13 13 12 11 9 8 6 5 4 3 2 1 1 1 1 0 2 2 3 3 4 6 8 9 9 10 9 10 11
12 12 13 13 13 13 14 14 13 13 13 12 12 12 12 13 14 12 9 9 8 6 5 4 3 2 1 1 1 1 1 2 3 1 3 4 4 4 6 8 8 10 11
11 12 12 13 14 12 15 18 16 13 13 13 12 11 11 12 13 14 13 12 11 9 7 5 4 3 3 2 2 1 0 1 2 2 2 4 2 3 4 5 9 10 10
10 11 12 13 13 14 17 19 18 14 13 12 12 12 10 10 12 10 11 11 9 9 9 7 5 5 4 3 3 1 1 1 2 2 2 3 2 3 4 7 10 10 11
9 10 11 11 11 12 18 18 18 13 11 12 12 13 12 12 12 12 10 8 6 5 6 5 5 4 4 3 4 3 2 0 1 2 2 2 3 4 5 6 8 10 12
7 9 10 11 11 12 18 19 17 11 10 11 11 12 13 13 16 17 12 10 8 5 7 10 9 8 7 6 4 3 2 2 1 1 2 1 2 4 4 3 6 10 12
6 7 9 9 11 11 16 19 18 11 10 10 9 10 15 15 19 19 13 12 11 8 7 7 6 6 5 5 5 4 3 2 0 1 1 2 2 3 4 3 4 6 8
Wind_Direction
158 158 159 163 163 158 158 168 174 165 160 166 168 151 138 123 122 122 128 131 129 132 131 131 127 121 113 102 87 70 54 43 33 26 20 14 10 6 2 359 356 355 353
162 161 161 164 162 160 166 173 171 158 160 152 154 146 139 133 128 129 134 138 136 136 136 141 138 134 129 116 97 71 42 26 17 13 9 5 1 359 356 353 351 349 347
165 164 161 164 161 162 167 169 162 152 148 147 154 151 137 136 138 140 143 147 150 152 152 153 154 153 154 147 124 61 20 5 1 359 355 352 351 350 349 347 345 343 341
165 164 161 164 161 163 164 162 154 147 145 150 153 148 134 132 140 147 148 152 155 156 163 169 172 175 178 192 214 296 342 339 340 340 341 341 341 340 340 341 339 337 336
166 163 161 163 160 162 162 162 154 151 153 155 151 142 138 146 154 151 152 157 157 157 162 170 177 185 196 212 236 269 297 309 318 323 326 328 329 330 331 332 333 332 332
167 163 161 163 162 162 163 161 156 154 154 154 146 137 143 154 161 163 166 157 162 166 167 172 178 187 198 213 231 255 278 294 303 309 313 316 319 322 324 326 327 327 328
168 165 163 164 164 166 167 164 158 157 157 146 128 127 137 178 178 179 172 165 172 177 176 179 181 183 193 209 223 246 270 284 292 299 305 309 313 316 318 321 322 323 325
171 171 165 166 165 165 168 169 158 158 165 155 148 143 155 224 242 200 180 181 184 174 178 184 184 186 188 195 211 233 263 278 286 292 298 303 307 310 313 316 318 320 323
171 172 170 167 168 169 172 172 167 162 166 170 172 163 159 191 194 219 203 189 186 185 186 187 190 193 194 193 205 225 250 270 281 289 296 301 304 307 309 312 315 318 321
172 171 172 171 171 172 172 174 170 166 165 173 189 200 170 146 149 174 226 207 196 195 193 185 184 191 198 203 208 220 243 264 278 287 293 298 302 304 307 310 314 316 319
175 173 172 176 175 176 174 174 171 171 175 175 175 176 180 145 147 150 189 208 212 210 192 184 179 187 197 202 208 222 242 259 275 285 292 297 301 304 308 311 313 315 317
179 177 174 177 178 178 177 176 175 175 179 180 177 172 166 164 177 168 179 192 204 214 200 187 180 182 191 198 209 225 242 255 271 283 291 297 301 305 308 311 313 314 316
183 182 180 180 180 180 178 175 177 179 180 181 183 182 179 182 172 166 163 182 184 196 192 203 192 181 188 191 203 227 239 249 267 280 288 295 299 304 308 311 313 314 317
187 180 181 181 182 179 180 178 179 180 181 184 187 181 182 187 179 171 164 160 164 204 203 216 196 182 180 185 201 219 235 253 267 276 284 292 296 301 306 309 312 314 317
185 181 181 183 183 182 182 179 182 182 182 187 186 184 182 181 177 175 164 157 161 187 219 212 187 184 176 176 190 205 236 261 268 277 284 290 295 300 305 309 312 314 316
185 183 182 185 186 185 183 182 182 182 183 186 182 181 182 179 174 171 168 166 162 169 201 206 181 168 158 170 196 212 243 264 269 280 287 292 296 301 306 308 309 313 317
185 183 185 185 186 187 185 184 185 183 184 184 183 183 184 177 174 173 165 164 169 161 192 230 156 130 144 171 183 216 243 252 265 279 289 295 299 303 306 306 309 314 318
187 186 184 184 185 187 186 188 187 184 184 185 184 183 184 179 175 172 170 174 177 171 173 202 212 150 166 178 176 235 256 267 270 280 290 296 302 305 306 307 311 315 318
188 188 184 185 185 186 187 189 188 186 187 186 184 185 183 178 181 176 172 175 176 171 167 175 199 181 140 130 100 301 294 296 293 296 297 304 306 309 308 309 312 316 318
190 192 189 186 185 183 185 187 186 184 185 184 183 183 183 183 182 177 177 177 170 168 167 169 189 189 169 107 107 288 309 307 310 310 318 315 311 309 307 311 313 315 317
190 189 189 185 184 183 185 183 181 181 181 181 180 181 181 179 178 176 176 174 170 170 169 174 185 178 182 161 202 205 274 307 304 335 326 305 300 297 299 307 310 312 317
188 185 189 189 185 187 180 178 179 180 180 179 179 176 174 173 174 172 169 169 170 175 181 180 186 191 206 190 167 148 183 343 298 318 332 303 295 298 293 297 310 316 320
187 188 188 189 188 182 173 177 176 178 179 179 177 175 173 173 167 166 161 159 167 173 175 175 180 192 180 179 158 168 212 241 252 284 338 295 307 302 303 315 318 321 326
190 190 188 184 183 179 171 173 172 175 175 176 178 176 171 168 168 161 156 154 151 149 154 152 157 155 146 147 162 175 188 312 332 344 32 295 307 309 316 311 321 332 335
191 190 183 182 181 179 174 171 168 177 176 176 174 172 169 169 166 159 158 154 144 135 120 122 121 121 125 124 121 110 92 64 330 309 12 356 312 319 314 310 321 333 335
188 187 184 183 181 180 176 173 171 176 176 175 168 170 171 169 165 163 165 162 162 159 142 130 117 106 101 102 102 115 143 128 79 279 338 7 336 349 324 308 318 324 329
Height
1485 1489 1493 1497 1501 1504 1507 1511 1514 1517 1519 1522 1524 1526 1528 1529 1530 1531 1532 1533 1534 1535 1536 1536 1537 1537 1537 1537 1536 1536 1536 1535 1534 1533 1532 1531 1530 1528 1526 1524 1523 1521 1518
1481 1485 1490 1494 1498 1502 1505 1509 1512 1516 1518 1521 1523 1525 1527 1528 1529 1530 1531 1532 1533 1534 1535 1536 1536 1536 1536 1536 1536 1535 1535 1534 1533 1533 1531 1530 1528 1527 1525 1523 1521 1519 1516
1477 1481 1486 1490 1495 1499 1503 1507 1511 1514 1517 1520 1522 1524 1526 1527 1528 1529 1530 1531 1532 1533 1534 1535 1535 1535 1535 1535 1535 1534 1534 1533 1532 1531 1530 1528 1527 1525 1523 1521 1519 1516 1514
1472 1477 1481 1486 1491 1496 1500 1504 1508 1512 1515 1518 1520 1523 1525 1526 1527 1528 1529 1530 1531 1532 1533 1533 1534 1534 1534 1534 1534 1533 1532 1532 1531 1530 1528 1527 1525 1523 1521 1519 1516 1514 1511
1467 1472 1477 1482 1488 1492 1497 1501 1505 1509 1512 1515 1518 1521 1523 1524 1526 1527 1528 1529 1530 1530 1531 1532 1532 1533 1533 1532 1532 1531 1531 1530 1529 1528 1526 1524 1523 1521 1519 1516 1514 1511 1509
1462 1467 1473 1478 1483 1488 1493 1497 1502 1506 1509 1513 1516 1519 1521 1523 1524 1526 1526 1527 1528 1529 1529 1530 1530 1530 1531 1530 1530 1530 1529 1528 1527 1525 1524 1522 1520 1518 1516 1513 1511 1508 1506
1455 1462 1468 1473 1479 1484 1489 1493 1498 1502 1506 1510 1514 1517 1519 1521 1523 1524 1525 1525 1526 1527 1527 1528 1528 1528 1528 1528 1528 1527 1527 1525 1524 1523 1521 1519 1517 1515 1513 1510 1508 1505 1502
1451 1457 1462 1468 1474 1479 1485 1489 1493 1498 1502 1506 1509 1513 1516 1520 1520 1521 1522 1523 1524 1524 1525 1525 1526 1526 1525 1525 1525 1525 1524 1523 1521 1520 1518 1516 1514 1512 1510 1507 1504 1502 1499
1446 1451 1457 1463 1469 1474 1479 1484 1489 1493 1497 1502 1506 1508 1511 1513 1516 1518 1519 1520 1521 1522 1522 1523 1523 1523 1523 1522 1522 1522 1521 1520 1518 1516 1514 1512 1510 1508 1506 1504 1501 1498 1495
1441 1447 1453 1459 1464 1469 1474 1479 1484 1489 1492 1496 1501 1505 1507 1508 1511 1514 1516 1517 1518 1519 1519 1520 1520 1520 1520 1520 1519 1518 1517 1516 1515 1513 1511 1509 1507 1505 1502 1500 1497 1494 1491
1436 1442 1448 1454 1459 1464 1469 1474 1479 1484 1488 1492 1496 1500 1503 1505 1507 1509 1511 1513 1515 1515 1516 1517 1517 1517 1517 1516 1516 1515 1514 1513 1511 1509 1507 1505 1503 1501 1498 1496 1493 1490 1487
1431 1437 1443 1449 1454 1459 1464 1469 1474 1479 1483 1488 1492 1495 1498 1501 1503 1505 1507 1508 1510 1512 1513 1513 1513 1513 1513 1513 1512 1512 1510 1509 1507 1505 1503 1501 1499 1496 1494 1492 1489 1486 1483
1425 1430 1437 1443 1449 1454 1459 1464 1469 1474 1478 1483 1487 1491 1494 1497 1500 1502 1504 1505 1507 1508 1509 1510 1510 1510 1510 1509 1509 1508 1507 1505 1503 1501 1499 1497 1495 1492 1490 1487 1484 1481 1478
1419 1425 1431 1437 1443 1449 1454 1459 1464 1469 1474 1478 1482 1486 1490 1493 1496 1499 1500 1502 1503 1505 1505 1506 1506 1506 1506 1506 1505 1504 1503 1501 1499 1497 1495 1493 1491 1488 1485 1483 1480 1476 1473
1415 1421 1426 1432 1438 1443 1448 1453 1458 1463 1468 1473 1477 1481 1485 1489 1492 1495 1497 1498 1500 1500 1501 1502 1502 1502 1502 1502 1502 1500 1499 1497 1496 1494 1491 1489 1487 1484 1481 1478 1475 1472 1469
1410 1415 1420 1427 1433 1438 1443 1447 1452 1458 1463 1468 1472 1476 1480 1484 1487 1490 1492 1494 1496 1497 1498 1498 1499 1499 1499 1499 1498 1497 1495 1494 1492 1490 1487 1485 1482 1480 1477 1474 1471 1468 1465
1405 1410 1416 1421 1427 1432 1436 1441 1446 1452 1457 1462 1466 1470 1474 1479 1482 1485 1487 1490 1492 1493 1494 1495 1495 1495 1495 1495 1494 1493 1491 1490 1488 1486 1483 1481 1478 1476 1473 1470 1467 1464 1461
1400 1405 1411 1415 1421 1426 1431 1435 1440 1446 1450 1455 1460 1464 1469 1473 1476 1480 1482 1485 1487 1489 1490 1490 1491 1491 1491 1491 1490 1489 1487 1486 1484 1482 1479 1477 1474 1472 1469 1466 1463 1460 1457
1395 1400 1405 1410 1415 1420 1425 1430 1435 1440 1445 1449 1454 1458 1463 1467 1471 1474 1477 1480 1482 1484 1485 1486 1487 1487 1487 1487 1486 1485 1483 1482 1480 1478 1475 1473 1470 1468 1465 1462 1459 1456 1453
1390 1395 1400 1405 1410 1415 1419 1425 1430 1434 1439 1444 1449 1453 1457 1461 1465 1469 1472 1475 1477 1479 1481 1482 1482 1483 1483 1482 1481 1480 1479 1478 1476 1474 1472 1469 1467 1464 1461 1458 1455 1452 1449
1385 1390 1395 1400 1405 1409 1414 1419 1424 1429 1434 1439 1443 1448 1452 1456 1460 1464 1467 1470 1472 1474 1476 1477 1478 1478 1478 1478 1477 1476 1475 1473 1472 1470 1468 1466 1463 1460 1457 1454 1451 1449 1446
1380 1385 1390 1395 1399 1404 1409 1414 1419 1424 1429 1433 1438 1442 1447 1451 1456 1459 1462 1465 1468 1470 1471 1472 1473 1473 1473 1474 1473 1472 1471 1469 1467 1466 1464 1462 1459 1456 1453 1450 1448 1446 1443
1375 1380 1385 1389 1394 1398 1404 1410 1414 1419 1423 1427 1432 1437 1441 1446 1450 1454 1458 1461 1463 1465 1467 1468 1469 1469 1470 1470 1470 1469 1467 1466 1464 1462 1460 1457 1455 1452 1450 1447 1445 1443 1440
1370 1375 1379 1384 1388 1393 1399 1404 1409 1414 1418 1423 1427 1432 1436 1441 1445 1449 1453 1456 1458 1460 1462 1464 1465 1466 1466 1467 1466 1466 1465 1463 1462 1459 1457 1454 1451 1449 1447 1445 1442 1439 1437
1366 1370 1374 1379 1383 1388 1393 1399 1404 1409 1413 1418 1423 1427 1431 1436 1440 1445 1449 1451 1454 1456 1458 1460 1461 1462 1463 1463 1462 1462 1461 1459 1457 1456 1454 1451 1448 1445 1443 1442 1439 1436 1433
1362 1366 1370 1375 1379 1383 1388 1393 1399 1403 1408 1413 1418 1422 1427 1431 1436 1440 1443 1446 1449 1452 1454 1456 1457 1458 1459 1459 1459 1458 1457 1456 1454 1453 1451 1449 1446 1443 1440 1438 1437 1434 1431